Probability
0 0 0 0 0 0 0 0 0 1 1 1 0 1 1 1 2 3 5 9 12 10 6 6 9 10 10 10 10 10 10 5 2 0 0 0 0 0 1 2 3 3 3
0 0 0 0 0 0 0 0 0 0 1 1 0 0 0 1 2 3 6 9 11 10 7 7 9 10 10 10 9 8 8 6 3 1 0 0 0 0 0 1 3 3 3
0 0 0 0 0 0 0 0 0 0 0 1 0 0 0 0 2 3 5 7 9 8 8 8 10 10 10 9 8 6 5 5 3 1 0 0 0 0 1 1 3 3 3
1 2 1 1 0 0 0 0 0 0 0 0 0 0 0 0 1 1 2 3 5 7 8 9 9 9 10 10 9 6 5 4 2 0 0 0 0 1 2 3 3 3 3
3 3 3 3 2 1 0 0 0 0 0 0 0 0 0 0 0 0 0 1 3 6 7 7 8 9 10 10 9 7 6 4 1 0 0 0 0 1 2 3 3 3 3
3 3 4 5 4 2 1 0 0 0 1 1 1 0 0 1 1 0 0 1 3 5 4 4 6 9 9 8 7 7 6 4 1 0 0 0 0 1 1 1 3 3 3
3 3 4 5 5 4 2 1 0 0 1 2 2 1 1 2 2 1 0 0 2 3 3 3 4 5 5 5 5 5 5 3 1 0 0 0 1 1 1 1 3 3 3
3 3 3 4 4 4 3 2 1 0 1 2 2 2 1 1 1 1 0 0 0 1 2 3 3 3 2 3 3 3 4 3 1 0 0 0 1 2 2 2 3 3 4
3 3 3 3 3 3 3 2 2 1 1 2 2 1 1 0 0 0 0 0 0 1 2 3 3 2 1 2 3 3 3 2 1 0 0 0 0 1 1 2 3 4 4
3 3 3 3 2 1 1 1 2 2 1 2 2 1 0 0 0 0 0 0 1 1 2 3 2 1 0 1 3 3 3 2 1 0 0 0 0 0 0 1 2 3 3
2 3 3 3 2 2 1 2 3 2 2 2 2 1 0 0 0 0 0 1 1 2 2 1 1 0 0 1 2 3 1 1 0 0 0 0 0 0 0 0 1 1 1
1 2 3 3 3 4 4 4 4 3 3 2 2 1 0 0 0 0 1 1 1 1 1 0 0 0 0 1 2 2 1 0 0 0 0 0 0 0 0 0 0 0 0
0 1 1 2 3 4 5 5 5 5 4 3 2 1 1 1 0 0 1 1 0 0 0 0 0 0 0 0 1 1 0 0 0 0 0 0 0 0 0 0 0 0 0
0 0 0 2 3 3 4 4 5 5 5 5 4 3 2 2 1 1 1 1 1 0 0 0 0 0 0 0 0 0 0 0 0 0 0 0 0 0 0 0 0 0 0
1 1 1 2 3 3 3 3 4 4 4 4 5 4 3 3 3 3 3 2 1 0 0 0 0 0 0 0 0 0 0 0 0 0 0 0 0 0 0 0 0 0 0
2 1 1 1 3 3 3 3 3 4 4 4 4 4 3 4 4 4 4 2 1 0 0 0 0 0 0 0 0 0 0 0 0 0 0 0 0 0 0 0 0 0 0
3 2 0 1 2 3 3 3 3 4 5 4 4 4 4 3 4 4 3 2 1 0 0 0 0 0 0 0 0 0 0 0 0 0 0 0 0 0 0 0 0 0 0
3 2 1 1 2 3 3 3 3 4 5 4 4 4 4 3 3 3 3 2 1 0 0 0 0 0 0 0 0 0 0 0 0 0 0 0 0 0 0 0 0 0 0
3 3 2 2 2 3 4 3 3 4 5 5 4 4 3 3 2 3 3 3 1 1 0 0 0 0 0 0 0 0 0 0 0 0 0 0 0 0 0 0 0 0 0
2 2 2 3 4 4 5 4 3 4 5 5 4 3 3 3 3 3 3 3 3 2 1 0 0 0 0 0 0 0 0 0 0 0 0 0 0 0 0 0 0 0 0
2 2 2 3 4 5 5 4 3 3 4 4 3 3 3 3 3 3 3 3 3 3 1 0 0 0 0 0 0 0 0 0 0 0 0 1 1 1 0 0 0 0 0
2 2 1 2 3 3 4 3 3 3 3 3 3 4 3 3 3 3 3 3 3 3 2 1 0 0 0 0 0 0 0 0 0 0 0 1 1 1 0 0 0 0 0
1 1 1 1 1 2 3 3 3 3 3 3 4 4 4 3 3 2 2 2 2 2 2 1 0 0 0 0 0 0 0 0 0 0 0 0 1 1 0 0 0 0 0
1 0 0 0 1 2 3 3 3 3 3 3 3 4 4 3 2 1 1 1 1 1 1 0 0 0 0 0 0 0 0 0 0 0 0 0 0 0 0 0 0 0 0
2 1 0 0 0 2 3 3 3 3 3 3 3 3 3 2 1 1 1 0 0 0 0 0 0 0 0 0 0 0 0 0 0 0 0 0 0 0 0 0 0 1 1
2 1 0 0 1 2 3 3 3 3 3 3 3 3 3 2 1 1 1 0 0 0 1 1 1 0 0 0 0 0 0 1 1 1 0 0 0 0 0 0 0 1 0
Wind_Speed
3 5 6 6 7 8 8 9 9 9 9 8 9 9 9 8 8 7 7 8 8 8 8 7 7 8 8 8 8 8 8 8 8 7 7 7 6 5 6 6 6 7 9
3 5 6 7 7 8 8 9 10 10 9 9 9 9 9 9 9 9 9 9 9 8 8 8 8 8 8 8 8 8 8 8 8 7 7 7 6 5 6 5 4 6 9
4 4 6 7 8 8 9 9 9 10 10 10 10 9 9 10 10 10 10 9 8 9 8 8 9 9 8 8 8 8 8 7 7 6 4 4 6 6 6 6 7 8 8
4 5 7 7 8 9 9 9 10 10 10 10 10 10 10 10 10 10 10 9 8 8 9 9 9 9 8 8 8 7 7 6 6 3 3 4 5 7 6 7 7 7 7
5 5 8 7 8 9 10 10 10 10 11 11 11 11 11 11 11 10 10 10 8 9 9 9 8 9 9 9 9 8 8 6 5 3 4 4 4 6 5 6 7 7 7
5 6 8 7 8 9 10 10 10 11 11 11 11 11 11 11 10 11 10 10 9 9 9 9 9 10 10 9 9 9 8 6 4 4 4 4 5 7 6 6 7 8 8
6 6 7 8 8 9 10 10 11 11 12 12 11 11 11 11 11 10 10 10 9 10 10 10 10 10 10 9 9 9 8 5 4 5 5 5 6 8 8 8 8 8 7
5 5 6 8 8 9 10 10 11 11 11 12 12 12 12 11 11 10 10 9 9 9 10 11 11 11 10 10 9 9 7 4 4 5 5 6 8 8 9 9 9 8 8
5 5 5 6 7 8 9 10 10 11 11 11 12 11 11 11 11 11 11 11 10 10 11 11 11 11 10 10 9 8 6 4 4 4 5 5 8 8 8 9 9 9 8
5 5 5 5 5 6 7 9 9 10 10 10 10 10 9 10 11 11 11 12 12 13 12 11 11 10 10 10 9 7 4 2 5 5 4 6 8 8 8 8 9 9 9
4 4 4 4 5 5 6 7 7 7 7 6 7 7 5 6 8 8 13 13 13 13 13 11 11 10 8 10 9 5 2 3 5 4 5 8 8 8 8 8 8 8 8
4 4 3 4 4 4 4 4 3 4 4 4 5 6 5 6 6 7 10 11 11 11 12 11 9 6 4 5 6 3 3 6 5 5 6 9 8 8 8 9 8 8 8
3 3 3 3 3 3 3 3 2 3 3 4 5 6 5 5 4 5 4 5 6 7 7 7 5 5 6 5 4 5 5 5 4 4 7 9 9 9 9 9 9 8 8
2 2 2 2 3 3 3 3 2 3 3 3 4 5 4 4 4 5 4 5 5 4 5 5 4 6 7 7 6 6 7 5 4 4 7 10 9 9 9 10 10 9 9
2 2 2 2 2 2 3 2 2 3 3 4 3 4 5 4 4 4 4 4 5 4 4 4 5 6 6 7 6 7 7 6 6 5 5 10 10 9 9 9 10 10 10
2 2 3 2 2 2 2 2 2 3 3 3 3 3 4 4 4 4 5 5 4 4 4 4 6 5 5 5 6 7 6 6 6 6 5 7 10 10 10 10 10 10 9
2 2 3 2 2 2 2 2 2 2 3 3 3 3 3 4 4 4 4 4 4 4 4 4 6 5 5 5 6 6 6 6 5 6 5 4 5 9 10 10 10 9 9
2 3 3 2 2 2 2 2 2 3 3 3 2 2 3 3 4 3 3 3 3 4 3 3 3 4 4 4 4 5 5 5 6 6 5 5 4 4 7 9 9 9 9
2 3 3 3 2 3 3 2 3 3 3 2 2 2 2 3 3 3 3 2 3 3 3 3 4 3 4 4 4 4 4 4 4 4 5 6 5 4 5 7 7 9 9
3 3 4 3 3 3 3 3 3 3 3 2 2 2 2 2 3 3 2 3 3 3 3 3 4 3 3 3 4 4 4 4 4 4 4 4 4 5 5 4 4 6 8
4 4 4 4 3 3 2 2 3 3 2 2 1 2 2 2 2 2 1 3 2 2 2 3 3 3 3 2 2 3 4 3 4 3 3 3 4 4 4 4 3 3 3
4 4 4 4 4 3 2 2 2 2 2 2 1 1 1 2 2 2 2 2 2 2 2 2 2 1 2 1 0 1 2 2 2 2 2 2 3 3 3 4 4 3 3
5 5 4 4 4 4 4 3 3 3 2 2 2 1 1 1 2 2 2 2 2 2 2 2 1 1 1 1 1 1 0 1 1 2 2 2 2 2 2 3 3 3 3
5 5 5 5 5 4 5 4 4 3 2 2 1 2 2 2 1 1 1 2 2 1 1 1 1 1 1 1 1 1 2 1 1 1 1 2 2 2 2 2 2 2 3
5 5 4 4 4 5 5 4 4 3 2 2 2 2 2 2 1 1 1 1 1 1 1 1 1 1 1 1 0 0 0 0 2 1 1 0 1 1 2 2 1 2 2
5 5 5 4 4 4 5 5 4 3 3 3 2 2 2 2 1 2 1 1 1 1 1 1 1 2 2 1 1 1 1 1 1 1 1 1 0 1 1 1 1 1 1
Wind_Direction
32 33 29 31 40 45 44 43 46 50 52 55 55 56 58 68 72 76 93 107 112 116 116 114 112 109 107 110 113 109 108 108 107 107 105 102 102 108 111 120 131 118 110
45 48 47 37 46 52 53 52 51 52 53 56 58 58 60 67 72 72 81 93 101 107 110 111 109 106 102 102 105 107 105 101 101 103 106 105 98 101 108 112 103 101 116
60 58 69 45 49 53 56 58 57 55 56 56 58 60 63 66 66 69 73 82 94 101 102 102 104 105 103 100 98 99 99 97 94 98 117 111 104 100 109 117 113 111 116
65 61 60 52 49 53 56 57 56 58 58 59 59 61 63 66 66 66 70 77 90 95 96 98 100 102 100 98 97 95 92 91 94 106 109 93 99 100 109 114 113 112 112
70 64 64 47 49 53 55 58 59 59 61 61 60 61 63 64 65 65 68 70 81 90 91 92 93 94 94 92 91 89 86 88 102 101 92 90 86 93 104 118 115 112 112
76 68 69 50 54 55 56 56 59 59 61 62 62 64 65 64 64 66 66 66 75 86 88 87 86 86 86 86 87 85 82 87 105 83 81 86 86 82 89 105 114 112 110
75 69 70 58 57 58 59 59 60 62 62 64 63 64 64 65 64 64 63 64 70 81 85 84 83 83 82 81 81 81 78 70 78 81 80 80 79 79 87 93 101 104 104
73 72 78 79 67 63 63 62 62 63 65 64 64 63 64 64 63 63 61 62 71 83 84 83 84 83 83 80 78 76 67 41 93 86 80 76 73 76 82 86 91 95 93
71 69 73 83 89 82 69 66 65 66 68 66 66 65 65 63 61 59 57 58 72 84 88 86 86 85 84 82 81 79 72 28 69 75 81 75 73 76 83 89 88 89 90
77 70 69 74 75 82 84 73 67 67 69 68 67 65 66 71 67 60 58 59 70 81 86 84 85 86 84 81 79 80 81 74 69 70 67 75 72 73 82 89 88 89 88
82 72 73 72 77 78 80 84 84 78 74 81 79 72 66 65 65 64 56 58 66 74 78 79 80 84 90 91 81 80 85 68 70 62 61 65 71 74 80 88 91 93 92
93 83 76 77 78 79 80 85 76 76 76 69 70 73 67 64 60 60 69 63 65 73 80 75 78 92 88 88 92 94 71 70 64 64 64 61 65 70 76 83 86 87 90
96 91 83 86 83 82 85 77 73 71 68 66 66 73 69 68 68 61 67 74 70 70 70 79 81 67 69 69 65 66 63 59 60 60 66 65 64 67 72 79 80 82 83
108 109 101 95 91 87 85 80 77 78 71 68 67 71 69 65 60 61 63 60 59 60 60 58 58 66 66 68 67 65 65 59 60 65 65 62 63 64 70 77 76 77 78
127 138 122 116 102 99 91 83 82 79 77 80 74 68 70 66 64 66 70 66 61 61 64 61 64 67 65 62 60 61 62 61 62 65 73 66 60 63 69 78 79 76 74
148 144 137 139 122 123 119 112 96 94 97 84 83 77 76 74 66 66 71 71 66 61 60 62 67 68 66 63 62 60 60 61 60 63 68 76 69 62 63 71 74 75 75
155 146 142 150 147 143 126 116 113 110 106 96 87 82 83 80 74 74 71 74 72 70 68 66 71 70 71 72 71 64 59 56 58 63 67 66 80 77 67 68 69 70 72
172 153 143 157 166 145 139 140 131 120 110 100 91 79 75 76 72 77 77 78 79 78 75 77 80 78 76 71 71 68 68 63 61 60 65 70 65 73 79 68 64 65 66
179 166 156 154 160 149 139 136 127 119 114 110 100 86 75 70 73 84 78 81 86 83 80 79 78 77 78 76 78 74 67 65 61 59 58 58 61 64 74 84 77 66 61
181 175 163 157 163 149 151 145 134 126 121 114 104 97 85 78 81 84 95 93 90 90 87 87 87 79 76 79 85 80 73 69 64 54 51 55 54 57 59 70 85 84 71
186 186 174 173 165 159 158 165 156 146 134 125 115 110 110 99 92 91 96 101 102 101 99 99 102 99 88 89 108 107 99 77 61 61 48 46 57 53 54 62 55 61 89
187 193 185 179 173 168 165 162 150 140 135 120 124 119 114 118 109 117 121 119 123 117 116 104 104 105 90 79 75 157 135 130 81 67 56 41 44 53 44 50 60 56 46
192 191 188 181 176 172 166 158 150 143 149 149 147 142 142 137 130 125 122 128 128 133 129 130 136 128 114 98 26 340 320 100 105 115 69 55 43 40 37 36 40 48 48
188 187 189 183 180 174 170 171 168 168 163 163 158 149 161 153 150 145 145 159 153 133 126 156 160 201 238 164 90 355 351 36 249 146 135 67 47 35 21 23 21 32 41
178 181 188 184 183 180 176 173 189 187 175 168 164 159 169 152 159 167 174 186 175 164 152 157 212 245 248 264 239 130 104 212 264 254 191 134 81 35 15 1 12 21 32
170 175 182 187 185 184 183 185 195 191 189 183 187 184 188 171 176 178 189 197 195 188 175 200 220 232 257 259 250 233 242 240 245 247 246 231 255 36 16 7 350 9 20